TOL852 EGLL-LFPG

Flight info

Callsign TOL852
Flight time 0h 21m
Altitude 25000
Route DET L9 KONAN UL607 LGL
Aircraft A346/H-V/N

Departure

Time 2026-05-03 23:57
Airport London Heathrow Airport (EGLL)

Arrival

Time 2026-05-04 00:18
Airport Charles de Gaulle International Airport (LFPG)
Time Latitude Longitude Altitude Speed Heading
2026-05-03 23:42 51.47315 -0.47924 87 ft 0 kts 90°
2026-05-03 23:48 51.47319 -0.47883 87 ft 0 kts 67°
2026-05-03 23:48 51.47326 -0.47871 87 ft 4 kts 34°
2026-05-03 23:48 51.47395 -0.47876 88 ft 12 kts
2026-05-03 23:49 51.47486 -0.47871 90 ft 13 kts
2026-05-03 23:49 51.47551 -0.47898 90 ft 9 kts 320°
2026-05-03 23:49 51.47577 -0.48011 90 ft 12 kts 274°
2026-05-03 23:49 51.47577 -0.48165 88 ft 15 kts 270°
2026-05-03 23:50 51.47577 -0.48353 88 ft 17 kts 270°
2026-05-03 23:50 51.47576 -0.48486 90 ft 17 kts 270°
2026-05-03 23:50 51.47576 -0.48758 90 ft 19 kts 271°
2026-05-03 23:50 51.47582 -0.48955 90 ft 17 kts 291°
2026-05-03 23:51 51.47684 -0.49033 90 ft 17 kts 14°
2026-05-03 23:51 51.47742 -0.48883 92 ft 16 kts 85°
2026-05-03 23:51 51.47748 -0.48693 92 ft 11 kts 90°
2026-05-03 23:51 51.47748 -0.48686 92 ft 0 kts 89°
2026-05-03 23:56 51.47748 -0.48678 92 ft 10 kts 89°
2026-05-03 23:56 51.47751 -0.48008 92 ft 106 kts 90°
2026-05-03 23:56 51.47750 -0.46417 130 ft 173 kts 91°
2026-05-03 23:57 51.47749 -0.44306 595 ft 203 kts 90°
2026-05-03 23:57 51.47767 -0.41955 1214 ft 218 kts 89°
2026-05-03 23:57 51.47801 -0.39443 1920 ft 232 kts 90°
2026-05-03 23:57 51.47806 -0.36777 2531 ft 252 kts 90°
2026-05-03 23:58 51.47800 -0.33788 2845 ft 278 kts 90°
2026-05-03 23:58 51.47798 -0.30794 2888 ft 262 kts 90°
2026-05-03 23:58 51.47799 -0.27801 2910 ft 285 kts 91°
2026-05-03 23:58 51.47431 -0.24673 2867 ft 284 kts 117°
2026-05-03 23:59 51.46208 -0.22329 2890 ft 278 kts 144°
2026-05-03 23:59 51.44608 -0.20656 2909 ft 272 kts 148°
2026-05-03 23:59 51.42992 -0.19059 3063 ft 278 kts 148°
2026-05-03 23:59 51.41351 -0.17437 3951 ft 283 kts 148°
2026-05-04 00:00 51.39697 -0.15789 4992 ft 281 kts 148°
2026-05-04 00:00 51.38066 -0.14153 5723 ft 282 kts 148°
2026-05-04 00:00 51.36400 -0.12474 6190 ft 284 kts 148°
2026-05-04 00:00 51.34736 -0.10794 6519 ft 288 kts 148°
2026-05-04 00:01 51.33011 -0.09050 7239 ft 298 kts 148°
2026-05-04 00:01 51.31240 -0.07259 7987 ft 310 kts 148°
2026-05-04 00:01 51.29361 -0.05360 8548 ft 329 kts 148°
2026-05-04 00:01 51.27369 -0.03348 9043 ft 348 kts 148°
2026-05-04 00:02 51.25291 -0.01250 9500 ft 367 kts 148°
2026-05-04 00:02 51.23082 0.00978 10108 ft 380 kts 148°
2026-05-04 00:02 51.20828 0.03248 10958 ft 385 kts 148°
2026-05-04 00:02 51.18577 0.05512 11569 ft 388 kts 148°
2026-05-04 00:03 51.16283 0.07818 11914 ft 389 kts 148°
2026-05-04 00:03 51.14004 0.10107 11988 ft 390 kts 148°
2026-05-04 00:03 51.11711 0.12406 11995 ft 389 kts 148°
2026-05-04 00:03 51.09420 0.14702 11998 ft 389 kts 148°
2026-05-04 00:04 51.07156 0.16968 11999 ft 389 kts 148°
2026-05-04 00:04 51.02010 0.22110 12000 ft 389 kts 148°
2026-05-04 00:04 50.93092 0.30996 12000 ft 389 kts 148°
2026-05-04 00:04 50.84387 0.39601 12000 ft 389 kts 148°
2026-05-04 00:05 50.75674 0.48182 12000 ft 389 kts 148°
2026-05-04 00:05 50.63770 0.59866 12000 ft 389 kts 148°
2026-05-04 00:05 50.52110 0.71278 12000 ft 389 kts 148°
2026-05-04 00:05 50.48739 0.74563 12000 ft 389 kts 148°
2026-05-04 00:06 50.39955 0.83070 12000 ft 389 kts 148°
2026-05-04 00:06 50.30892 0.91812 12000 ft 389 kts 148°
2026-05-04 00:06 50.21756 1.00584 12000 ft 389 kts 148°
2026-05-04 00:06 50.13334 1.08637 12000 ft 389 kts 148°
2026-05-04 00:07 50.04983 1.16585 12000 ft 389 kts 148°
2026-05-04 00:07 49.96930 1.24216 12000 ft 389 kts 148°
2026-05-04 00:07 49.89270 1.31445 12000 ft 389 kts 148°
2026-05-04 00:07 49.84302 1.36095 12000 ft 389 kts 148°
2026-05-04 00:08 49.81968 1.38278 12000 ft 389 kts 148°
2026-05-04 00:08 49.78363 1.41650 12000 ft 389 kts 148°
2026-05-04 00:08 49.73761 1.45953 12000 ft 389 kts 148°
2026-05-04 00:08 49.69184 1.50229 11110 ft 382 kts 148°
2026-05-04 00:09 49.64657 1.54449 9975 ft 378 kts 148°
2026-05-04 00:09 49.60247 1.58553 8913 ft 372 kts 148°
2026-05-04 00:09 49.55897 1.62592 7858 ft 366 kts 148°
2026-05-04 00:09 49.51590 1.66589 6815 ft 361 kts 149°
2026-05-04 00:10 49.47377 1.70509 6110 ft 346 kts 149°
2026-05-04 00:10 49.43381 1.74209 5728 ft 324 kts 149°
2026-05-04 00:10 49.39640 1.77660 5374 ft 305 kts 149°
2026-05-04 00:10 49.36126 1.80894 5044 ft 287 kts 149°
2026-05-04 00:11 49.32778 1.83968 4586 ft 276 kts 149°
2026-05-04 00:11 49.29489 1.86983 3917 ft 274 kts 149°
2026-05-04 00:11 49.26265 1.89935 3282 ft 271 kts 149°
2026-05-04 00:11 49.23032 1.92889 2647 ft 269 kts 149°
2026-05-04 00:12 49.19868 1.95775 2502 ft 269 kts 149°
2026-05-04 00:12 49.16668 1.98690 2500 ft 269 kts 149°
2026-05-04 00:12 49.13432 2.01633 2645 ft 278 kts 149°
2026-05-04 00:12 49.10159 2.04606 2995 ft 271 kts 149°
2026-05-04 00:13 49.06641 2.07794 2999 ft 271 kts 149°
2026-05-04 00:13 49.05016 2.09266 2999 ft 271 kts 149°
2026-05-04 00:13 49.03396 2.10730 2999 ft 271 kts 149°
2026-05-04 00:13 49.01792 2.12199 2997 ft 271 kts 145°
2026-05-04 00:14 49.00507 2.14293 2984 ft 270 kts 117°
2026-05-04 00:14 49.00052 2.17030 2988 ft 271 kts 89°
2026-05-04 00:14 49.00188 2.19894 3000 ft 271 kts 84°
2026-05-04 00:14 49.00384 2.22735 2997 ft 262 kts 84°
2026-05-04 00:15 49.00568 2.25441 2898 ft 253 kts 84°
2026-05-04 00:15 49.00737 2.28058 2753 ft 245 kts 84°
2026-05-04 00:15 49.00892 2.30575 2610 ft 238 kts 84°
2026-05-04 00:15 49.01039 2.33054 2467 ft 231 kts 84°
2026-05-04 00:16 49.01179 2.35469 2331 ft 224 kts 85°
2026-05-04 00:16 49.01311 2.37777 2263 ft 213 kts 85°
2026-05-04 00:16 49.01435 2.39963 2144 ft 203 kts 85°
2026-05-04 00:16 49.01544 2.41960 2135 ft 178 kts 84°
2026-05-04 00:17 49.01657 2.43808 1975 ft 175 kts 85°
2026-05-04 00:17 49.01757 2.45640 1607 ft 174 kts 85°
2026-05-04 00:17 49.01859 2.47477 1219 ft 173 kts 85°
2026-05-04 00:17 49.01955 2.49302 866 ft 172 kts 86°
2026-05-04 00:18 49.02050 2.51109 556 ft 173 kts 84°
2026-05-04 00:18 49.02146 2.52862 385 ft 152 kts 85°
2026-05-04 00:18 49.02210 2.54090 385 ft 77 kts 85°
2026-05-04 00:18 49.02237 2.54645 384 ft 44 kts 85°